Regional Weather Roundup
Issued by NWS

Home | Current Version | Previous Version | Graphics & Text | Print | Product List | Glossary Off
Versions: 1 2 3 4 5 6 7 8 9 10 11 12 13 14 15 16 17 18 19 20 21 22 23 24 25 26 27 28 29 30 31 32 33 34 35 36 37 38 39 40 41 42 43 44 45 46 47 48 49 50

000
ASUS43 KLSX 311107
RWRMO

WEATHER SUMMARY FOR MISSOURI
NATIONAL WEATHER SERVICE SPRINGFIELD MO
600 AM CDT MON AUG 31 2015

NOTE: "FAIR" INDICATES FEW OR NO CLOUDS BELOW 12,000 FEET WITH NO
       SIGNIFICANT WEATHER AND/OR OBSTRUCTIONS TO VISIBILITY.
       CURRENT SKY AND/OR WEATHER CONDITIONS ARE NOT AVAILABLE FOR
       CHILLICOTHE AND FARMINGTON.

MOZ001>031-035>038-043-044-053-054-311200-
...NORTHERN AND WESTERN MISSOURI...

CITY           SKY/WX    TMP DP  RH WIND       PRES   REMARKS
KANSAS CTY INT CLEAR     70  68  93 SE7       29.97R
KANSAS C DTWN  CLEAR     74  70  87 S5        29.95S
LEE`S SUMMIT   CLEAR     72  69  90 SE5       29.98R
ST JOSEPH      FOG       65  64  97 CALM      29.96S VSB 1
CHILLICOTHE      N/A     71  70  96 CALM      29.99R
KIRKSVILLE     CLEAR     67  65  93 SE3       30.01S FOG

$$
MOZ066>068-077>081-088>096-101>105-311200-
...SOUTHWEST MISSOURI...

CITY           SKY/WX    TMP DP  RH WIND       PRES   REMARKS
SPRINGFIELD    CLEAR     71  67  87 SE10      30.02R
JOPLIN         CLEAR     70  67  90 S3        29.99R

$$
MOZ032>034-039>042-045>050-055>058-069>072-311200-
...CENTRAL MISSOURI...

CITY           SKY/WX    TMP DP  RH WIND       PRES   REMARKS
COLUMBIA       PTCLDY    71  69  93 SE7       30.01R FOG
JEFFERSON CITY CLOUDY    70  69  97 SE5       30.01R FOG
ROLLA          CLEAR     71  66  84 S12       30.03R
SEDALIA        CLEAR     70  67  90 S7        30.00R
WHITEMAN AFB   CLEAR     71  70  97 S6        29.98R
WARRENSBURG    CLEAR     70  68  94 SE3       29.98R
OSAGE BEACH    MOCLDY    72  66  83 SE5       30.02R

$$
MOZ051-052-059>065-311200-
...EAST CENTRAL MISSOURI...

CITY           SKY/WX    TMP DP  RH WIND       PRES   REMARKS
ST LOUIS INTL  PTCLDY    75  69  81 S3        30.04R
SPIRIT OF STL  CLOUDY    70  69  97 CALM      30.02R FOG
ST CHARLES     CLEAR     70  70 100 E5        30.02R FOG

$$
MOZ072>076-082>087-097>100-106>115-311200-
...SOUTH CENTRAL AND SOUTHEAST MISSOURI...

CITY           SKY/WX    TMP DP  RH WIND       PRES   REMARKS
CAPE GIRARDEAU CLOUDY    68  67  96 SE3       30.07R
FARMINGTON     PTCLDY    70  66  88 S7        30.09R
POPLAR BLUFF   PTCLDY    69  68  96 CALM      30.05R
WEST PLAINS    CLOUDY    70  67  90 CALM      30.08R

$$


USA.gov is the U.S. government's official web portal to all federal, state and local government web resources and services.